CW0146 Weather Reports


Display with metric or nautical units.
time (UTC)temp
F
wind
direction
speed
MPH
gust
MPH
rain 1hr
in
rain 24hr
in
rain mn
in
humidity
%
barometer
mb
20260906142455 81 87 1.0 2.0 0.00 0.00 0.00 83 1015.0
20260906141957 81 155 1.0 2.0 0.00 0.00 0.00 83 1015.0
20260906141454 80 174 0.0 1.0 0.00 0.00 0.00 83 1015.0
20260906140954 80 93 0.0 1.0 0.00 0.00 0.00 83 1015.0
20260906140455 80 127 0.0 0.0 0.00 0.00 0.00 83 1015.0
20260906135954 80 184 0.0 0.0 0.00 0.00 0.00 83 1015.0
20260906135454 80 360 0.0 0.0 0.00 0.00 0.00 83 1015.0
20260906134954 80 89 0.0 2.0 0.00 0.00 0.00 83 1015.0
20260906134454 80 360 0.0 0.0 0.00 0.00 0.00 83 1015.0
20260906133955 80 92 0.0 1.0 0.00 0.00 0.00 83 1015.0
20260906133454 80 140 0.0 1.0 0.00 0.00 0.00 83 1015.0
20260906132954 80 120 0.0 1.0 0.00 0.00 0.00 83 1015.0
20260906132455 80 91 0.0 1.0 0.00 0.00 0.00 83 1014.0
20260906131955 80 360 0.0 0.0 0.00 0.00 0.00 83 1014.0
20260906131454 80 360 0.0 0.0 0.00 0.00 0.00 83 1014.0
20260906130954 80 360 0.0 0.0 0.00 0.00 0.00 84 1014.0
20260906130454 79 103 0.0 1.0 0.00 0.00 0.00 84 1014.0
20260906125954 79 188 0.0 2.0 0.00 0.00 0.00 85 1014.0
20260906125454 79 114 0.0 2.0 0.00 0.00 0.00 85 1014.0
20260906124954 79 167 0.0 2.0 0.00 0.00 0.00 85 1014.0
20260906124454 79 164 0.0 2.0 0.00 0.00 0.00 85 1014.0
20260906123954 78 71 0.0 0.0 0.00 0.00 0.00 85 1014.0
20260906123454 78 160 0.0 1.0 0.00 0.00 0.00 85 1014.0
20260906122954 78 64 0.0 1.0 0.00 0.00 0.00 86 1014.0
20260906122454 78 106 0.0 1.0 0.00 0.00 0.00 87 1014.0
20260906121954 78 327 0.0 1.0 0.00 0.00 0.00 88 1013.0
20260906121454 78 360 0.0 0.0 0.00 0.00 0.00 88 1013.0
20260906120954 78 360 0.0 0.0 0.00 0.00 0.00 87 1013.0
20260906120454 78 348 0.0 1.0 0.00 0.00 0.00 87 1013.0
20260906115954 78 360 0.0 0.0 0.00 0.00 0.00 87 1013.0
20260906115456 78 360 0.0 0.0 0.00 0.00 0.00 86 1013.0
20260906114954 78 360 0.0 0.0 0.00 0.00 0.00 86 1013.0
20260906114454 78 360 0.0 0.0 0.00 0.00 0.00 85 1013.0
20260906113954 78 245 0.0 0.0 0.00 0.00 0.00 85 1013.0
20260906113455 78 360 0.0 0.0 0.00 0.00 0.00 85 1013.0
20260906112954 79 73 0.0 1.0 0.00 0.00 0.00 85 1013.0
20260906112458 79 360 0.0 0.0 0.00 0.00 0.00 83 1013.0
20260906111954 79 360 0.0 0.0 0.00 0.00 0.00 82 1013.0
20260906111454 80 31 0.0 0.0 0.00 0.00 0.00 82 1013.0
20260906110954 80 285 0.0 1.0 0.00 0.00 0.00 80 1013.0
20260906110454 80 278 0.0 1.0 0.00 0.00 0.00 80 1013.0
20260906105954 80 303 0.0 1.0 0.00 0.00 0.00 79 1013.0
20260906105454 80 178 0.0 1.0 0.00 0.00 0.00 79 1013.0
20260906104954 80 176 0.0 1.0 0.00 0.00 0.00 79 1013.0
20260906104455 81 360 0.0 0.0 0.00 0.00 0.00 78 1013.0
20260906103954 81 183 0.0 2.0 0.00 0.00 0.00 78 1013.0
20260906103455 81 184 1.0 2.0 0.00 0.00 0.00 78 1013.0
20260906102954 81 65 0.0 2.0 0.00 0.00 0.00 78 1012.0
20260906102454 81 168 0.0 1.0 0.00 0.00 0.00 77 1012.0
20260906101954 81 315 0.0 1.0 0.00 0.00 0.00 77 1012.0
20260906101454 81 162 1.0 2.0 0.00 0.00 0.00 77 1012.0
20260906100954 81 218 1.0 2.0 0.00 0.00 0.00 77 1012.0
20260906100454 81 204 1.0 2.0 0.00 0.00 0.00 76 1012.0
20260906095954 81 178 1.0 2.0 0.00 0.00 0.00 76 1012.0
20260906095454 82 190 1.0 2.0 0.00 0.00 0.00 76 1012.0
20260906094955 82 185 2.0 4.0 0.00 0.00 0.00 76 1012.0
20260906094455 82 217 2.0 3.0 0.00 0.00 0.00 76 1012.0
20260906093954 82 193 1.0 2.0 0.00 0.00 0.00 75 1012.0
20260906093454 82 203 1.0 2.0 0.00 0.00 0.00 75 1012.0
20260906092954 82 174 2.0 4.0 0.00 0.00 0.00 75 1012.0
20260906092454 82 170 2.0 3.0 0.00 0.00 0.00 75 1012.0
20260906091955 82 208 1.0 2.0 0.00 0.00 0.00 75 1012.0
20260906091454 82 183 1.0 4.0 0.00 0.00 0.00 75 1012.0
20260906090954 82 168 2.0 3.0 0.00 0.00 0.00 74 1012.0
20260906090454 82 200 2.0 4.0 0.00 0.00 0.00 74 1012.0
20260906085954 82 179 3.0 4.0 0.00 0.00 0.00 74 1012.0
20260906085454 82 187 3.0 5.0 0.00 0.00 0.00 74 1012.0
20260906084953 82 166 2.0 4.0 0.00 0.00 0.00 74 1012.0
20260906084455 82 181 2.0 3.0 0.00 0.00 0.00 75 1012.0
20260906083955 82 165 1.0 3.0 0.00 0.00 0.00 74 1012.0
20260906083454 82 168 2.0 3.0 0.00 0.00 0.00 74 1012.0
20260906082954 82 191 1.0 3.0 0.00 0.00 0.00 74 1012.0
20260906082454 83 162 2.0 3.0 0.00 0.00 0.00 74 1012.0
20260906081954 83 162 2.0 4.0 0.00 0.00 0.00 74 1012.0
20260906081454 83 170 2.0 4.0 0.00 0.00 0.00 74 1012.0
20260906080954 83 196 1.0 2.0 0.00 0.00 0.00 75 1012.0
20260906080455 83 179 1.0 2.0 0.00 0.00 0.00 74 1012.0
20260906075955 83 185 1.0 2.0 0.00 0.00 0.00 74 1012.0
20260906075454 83 176 1.0 2.0 0.00 0.00 0.00 73 1012.0
20260906074954 83 176 3.0 6.0 0.00 0.00 0.00 73 1013.0
20260906074454 83 189 2.0 5.0 0.00 0.00 0.00 73 1013.0
20260906073954 83 190 2.0 4.0 0.00 0.00 0.00 73 1013.0
20260906073455 83 157 2.0 4.0 0.00 0.00 0.00 73 1013.0
20260906072954 83 174 2.0 3.0 0.00 0.00 0.00 72 1013.0
20260906072454 83 154 1.0 3.0 0.00 0.00 0.00 72 1013.0
20260906071956 83 174 1.0 3.0 0.00 0.00 0.00 72 1013.0
20260906071454 84 182 3.0 6.0 0.00 0.00 0.00 72 1013.0
20260906070954 84 169 2.0 6.0 0.00 0.00 0.00 72 1013.0
20260906070454 84 181 3.0 4.0 0.00 0.00 0.00 72 1013.0
20260906065954 84 178 2.0 4.0 0.00 0.00 0.00 72 1013.0
20260906065454 84 179 3.0 5.0 0.00 0.00 0.00 72 1013.0
20260906064954 84 175 2.0 4.0 0.00 0.00 0.00 73 1013.0
20260906064454 83 166 1.0 2.0 0.00 0.00 0.00 73 1013.0
20260906063955 83 179 3.0 5.0 0.00 0.00 0.00 73 1013.0
20260906063454 83 184 3.0 4.0 0.00 0.00 0.00 73 1013.0
20260906062954 83 149 2.0 3.0 0.00 0.00 0.00 73 1013.0
20260906062454 83 184 2.0 3.0 0.00 0.00 0.00 73 1013.0
20260906061954 83 174 1.0 2.0 0.00 0.00 0.00 73 1013.0
20260906061454 83 129 1.0 2.0 0.00 0.00 0.00 73 1013.0
20260906060954 83 152 1.0 2.0 0.00 0.00 0.00 73 1013.0
20260906060454 83 108 1.0 2.0 0.00 0.00 0.00 73 1013.0
20260906055954 83 173 1.0 2.0 0.00 0.00 0.00 73 1013.0
20260906055454 83 180 0.0 1.0 0.00 0.00 0.00 73 1014.0
20260906054954 83 170 2.0 4.0 0.00 0.00 0.00 73 1013.0
20260906054454 83 83 0.0 1.0 0.00 0.00 0.00 74 1013.0
20260906053954 83 151 1.0 3.0 0.00 0.00 0.00 74 1013.0
20260906053454 83 195 1.0 3.0 0.00 0.00 0.00 74 1013.0
20260906053003 83 182 0.0 0.0 0.00 0.00 0.00 73 1013.0
20260906052454 83 360 0.0 0.0 0.00 0.00 0.00 73 1013.0
20260906051954 83 162 0.0 1.0 0.00 0.00 0.00 73 1013.0
20260906051454 83 123 1.0 2.0 0.00 0.00 0.00 73 1013.0
20260906050955 83 139 0.0 1.0 0.00 0.00 0.00 73 1013.0
20260906050454 83 144 1.0 2.0 0.00 0.00 0.00 73 1013.0
20260906045954 83 123 1.0 2.0 0.00 0.00 0.00 73 1013.0
20260906045455 83 148 1.0 3.0 0.00 0.00 0.00 73 1013.0
20260906044954 83 146 0.0 1.0 0.00 0.00 0.00 72 1013.0
20260906044454 83 142 1.0 2.0 0.00 0.00 0.00 72 1014.0
20260906043954 83 96 0.0 1.0 0.00 0.00 0.00 72 1014.0
20260906043454 83 134 1.0 2.0 0.00 0.00 0.00 72 1014.0
20260906042955 83 129 1.0 2.0 0.00 0.00 0.00 72 1014.0
20260906042454 83 201 0.0 2.0 0.00 0.00 0.00 71 1014.0
20260906041954 83 99 1.0 3.0 0.00 0.00 0.00 71 1013.0
20260906041454 83 125 1.0 2.0 0.00 0.00 0.00 71 1013.0
20260906040955 84 103 0.0 1.0 0.00 0.00 0.00 70 1013.0
20260906040454 84 130 1.0 3.0 0.00 0.00 0.00 70 1013.0
20260906035954 84 104 0.0 1.0 0.00 0.00 0.00 70 1013.0
20260906035454 84 68 0.0 2.0 0.00 0.00 0.00 69 1013.0
20260906034954 84 132 2.0 3.0 0.00 0.00 0.00 69 1013.0
20260906034454 84 124 1.0 3.0 0.00 0.00 0.00 68 1013.0
20260906033954 85 126 1.0 3.0 0.00 0.00 0.00 68 1013.0
20260906033454 85 85 2.0 4.0 0.00 0.00 0.00 67 1013.0
20260906032954 85 61 1.0 3.0 0.00 0.00 0.00 66 1013.0
20260906032454 85 86 2.0 4.0 0.00 0.00 0.00 65 1013.0
20260906031954 86 116 2.0 4.0 0.00 0.00 0.00 64 1013.0
20260906031459 86 91 1.0 4.0 0.00 0.00 0.00 63 1013.0
20260906030954 86 105 2.0 5.0 0.00 0.00 0.00 62 1013.0
20260906030454 87 90 2.0 5.0 0.00 0.00 0.00 62 1013.0
20260906025954 87 88 2.0 3.0 0.00 0.00 0.00 62 1013.0
20260906025455 87 97 2.0 4.0 0.00 0.00 0.00 61 1013.0
20260906024954 87 99 1.0 2.0 0.00 0.00 0.00 61 1013.0
20260906024454 87 89 2.0 5.0 0.00 0.00 0.00 60 1013.0
20260906023954 88 160 1.0 3.0 0.00 0.00 0.00 60 1012.0
20260906023454 88 99 2.0 4.0 0.00 0.00 0.00 59 1012.0
20260906022953 88 89 2.0 4.0 0.00 0.00 0.00 58 1012.0
20260906022454 89 95 2.0 5.0 0.00 0.00 0.00 57 1012.0
20260906021957 89 92 2.0 4.0 0.00 0.00 0.00 56 1012.0
20260906021454 89 81 1.0 4.0 0.00 0.00 0.00 55 1012.0
20260906020954 89 86 2.0 5.0 0.00 0.00 0.00 55 1012.0
20260906020454 89 87 3.0 6.0 0.00 0.00 0.00 54 1012.0
20260906015955 89 114 2.0 3.0 0.00 0.00 0.00 54 1012.0
20260906015454 90 108 1.0 2.0 0.00 0.00 0.00 53 1011.0
20260906014957 90 91 1.0 2.0 0.00 0.00 0.00 53 1011.0
20260906014454 90 82 2.0 3.0 0.00 0.00 0.00 53 1011.0
20260906013954 90 109 2.0 3.0 0.00 0.00 0.00 53 1011.0
20260906013456 91 113 2.0 3.0 0.00 0.00 0.00 53 1011.0
20260906012954 91 95 2.0 4.0 0.00 0.00 0.00 53 1011.0
20260906012455 91 100 1.0 2.0 0.00 0.00 0.00 53 1011.0
20260906011954 91 95 2.0 5.0 0.00 0.00 0.00 52 1011.0
20260906011454 91 105 2.0 3.0 0.00 0.00 0.00 52 1011.0
20260906010954 92 130 2.0 3.0 0.00 0.00 0.00 52 1011.0
20260906010454 92 109 2.0 4.0 0.00 0.00 0.00 51 1011.0
20260906005954 92 100 3.0 4.0 0.00 0.00 0.00 50 1011.0
20260906005454 93 110 2.0 2.0 0.00 0.00 0.00 50 1011.0
20260906004955 93 103 3.0 5.0 0.00 0.00 0.00 49 1011.0
20260906004455 94 140 2.0 4.0 0.00 0.00 0.00 48 1011.0
20260906003954 94 126 1.0 2.0 0.00 0.00 0.00 47 1011.0
20260906003454 94 95 2.0 5.0 0.00 0.00 0.00 46 1011.0
20260906002954 94 93 2.0 3.0 0.00 0.00 0.00 47 1011.0
20260906002454 94 120 2.0 4.0 0.00 0.00 0.00 46 1011.0
20260906001954 95 112 2.0 4.0 0.00 0.00 0.00 46 1011.0
20260906001454 95 93 2.0 4.0 0.00 0.00 0.00 45 1011.0
20260906000955 95 113 2.0 3.0 0.00 0.00 0.00 45 1011.0
20260906000455 96 114 3.0 5.0 0.00 0.00 0.00 45 1011.0
20260905235955 96 109 2.0 5.0 0.00 0.00 0.00 44 1011.0
20260905235454 97 95 3.0 4.0 0.00 0.00 0.00 43 1011.0
20260905234954 97 131 2.0 3.0 0.00 0.00 0.00 43 1011.0
20260905234454 97 97 2.0 2.0 0.00 0.00 0.00 43 1011.0
20260905233954 97 124 2.0 4.0 0.00 0.00 0.00 43 1010.0
20260905233454 97 80 2.0 3.0 0.00 0.00 0.00 41 1010.0
20260905232954 98 109 2.0 3.0 0.00 0.00 0.00 41 1010.0
20260905232454 99 104 2.0 4.0 0.00 0.00 0.00 40 1010.0
20260905231955 100 111 2.0 4.0 0.00 0.00 0.00 38 1010.0
20260905231454 100 164 3.0 6.0 0.00 0.00 0.00 36 1010.0
20260905230954 99 120 1.0 2.0 0.00 0.00 0.00 37 1010.0
20260905230454 99 119 1.0 2.0 0.00 0.00 0.00 38 1010.0
20260905225954 99 109 2.0 4.0 0.00 0.00 0.00 38 1010.0
20260905225454 99 179 2.0 3.0 0.00 0.00 0.00 38 1010.0
20260905224954 99 192 3.0 5.0 0.00 0.00 0.00 38 1010.0
20260905224454 99 182 2.0 3.0 0.00 0.00 0.00 39 1010.0
20260905223954 99 107 2.0 3.0 0.00 0.00 0.00 39 1010.0
20260905223454 99 235 1.0 3.0 0.00 0.00 0.00 38 1010.0
20260905222956 99 91 1.0 2.0 0.00 0.00 0.00 38 1010.0
20260905222454 100 152 3.0 4.0 0.00 0.00 0.00 37 1010.0
20260905221954 99 94 3.0 5.0 0.00 0.00 0.00 37 1010.0
20260905221454 99 168 2.0 3.0 0.00 0.00 0.00 39 1010.0
20260905220954 99 132 1.0 2.0 0.00 0.00 0.00 38 1011.0
20260905220454 99 92 1.0 2.0 0.00 0.00 0.00 38 1011.0
20260905215954 99 182 3.0 4.0 0.00 0.00 0.00 37 1011.0
20260905215454 100 135 1.0 2.0 0.00 0.00 0.00 38 1011.0
20260905214954 99 140 2.0 2.0 0.00 0.00 0.00 40 1011.0
20260905214454 99 145 1.0 2.0 0.00 0.00 0.00 40 1011.0
20260905213954 100 123 1.0 1.0 0.00 0.00 0.00 38 1011.0
20260905213454 99 163 1.0 2.0 0.00 0.00 0.00 40 1011.0
20260905212954 99 129 2.0 3.0 0.00 0.00 0.00 39 1011.0
20260905212454 100 110 1.0 2.0 0.00 0.00 0.00 38 1011.0
20260905211955 100 203 1.0 2.0 0.00 0.00 0.00 38 1011.0
20260905211454 99 156 1.0 2.0 0.00 0.00 0.00 40 1011.0
20260905210955 99 84 1.0 2.0 0.00 0.00 0.00 38 1011.0
20260905210454 98 88 1.0 2.0 0.00 0.00 0.00 39 1011.0
20260905205954 98 223 2.0 3.0 0.00 0.00 0.00 38 1011.0
20260905205454 98 138 2.0 2.0 0.00 0.00 0.00 40 1011.0
20260905204955 98 111 2.0 4.0 0.00 0.00 0.00 39 1011.0
20260905204454 98 126 1.0 2.0 0.00 0.00 0.00 41 1011.0
20260905203954 98 172 1.0 2.0 0.00 0.00 0.00 40 1012.0
20260905203454 98 212 2.0 4.0 0.00 0.00 0.00 39 1012.0
20260905202954 98 148 2.0 3.0 0.00 0.00 0.00 40 1012.0
20260905202455 98 172 1.0 2.0 0.00 0.00 0.00 41 1012.0
20260905201956 98 172 2.0 4.0 0.00 0.00 0.00 40 1012.0
20260905201454 97 172 2.0 4.0 0.00 0.00 0.00 42 1012.0
20260905200954 96 154 2.0 2.0 0.00 0.00 0.00 42 1012.0
20260905200455 95 144 2.0 4.0 0.00 0.00 0.00 44 1012.0
20260905195954 95 85 2.0 4.0 0.00 0.00 0.00 44 1012.0
20260905195455 94 124 1.0 2.0 0.00 0.00 0.00 48 1012.0
20260905194954 94 200 2.0 3.0 0.00 0.00 0.00 45 1012.0
20260905194454 95 150 1.0 2.0 0.00 0.00 0.00 47 1012.0
20260905193954 95 130 1.0 2.0 0.00 0.00 0.00 46 1012.0
20260905193454 95 133 1.0 2.0 0.00 0.00 0.00 46 1012.0
20260905192955 94 97 1.0 1.0 0.00 0.00 0.00 47 1013.0
20260905192454 95 80 1.0 1.0 0.00 0.00 0.00 47 1013.0
20260905191955 96 291 2.0 3.0 0.00 0.00 0.00 44 1013.0
20260905191454 96 225 2.0 3.0 0.00 0.00 0.00 46 1013.0
20260905190954 96 183 2.0 4.0 0.00 0.00 0.00 44 1013.0
20260905190454 95 211 3.0 5.0 0.00 0.00 0.00 44 1013.0
20260905185954 95 204 2.0 3.0 0.00 0.00 0.00 47 1013.0
20260905185454 95 171 2.0 4.0 0.00 0.00 0.00 46 1013.0
20260905184954 95 157 2.0 4.0 0.00 0.00 0.00 47 1013.0
20260905184454 94 209 2.0 3.0 0.00 0.00 0.00 48 1013.0
20260905183954 94 176 3.0 4.0 0.00 0.00 0.00 48 1013.0
20260905183454 94 186 2.0 4.0 0.00 0.00 0.00 48 1014.0
20260905182954 94 195 1.0 2.0 0.00 0.00 0.00 47 1014.0
20260905182455 93 216 2.0 4.0 0.00 0.00 0.00 49 1014.0
20260905181954 93 169 2.0 4.0 0.00 0.00 0.00 48 1014.0
20260905181454 94 163 1.0 2.0 0.00 0.00 0.00 48 1014.0
20260905180955 94 174 3.0 5.0 0.00 0.00 0.00 48 1014.0
20260905180454 94 113 2.0 3.0 0.00 0.00 0.00 50 1014.0
20260905175955 94 151 1.0 2.0 0.00 0.00 0.00 52 1014.0
20260905175454 94 162 2.0 4.0 0.00 0.00 0.00 50 1014.0
20260905174954 93 198 2.0 3.0 0.00 0.00 0.00 51 1014.0
20260905174454 93 151 1.0 4.0 0.00 0.00 0.00 52 1014.0
20260905173955 93 217 2.0 3.0 0.00 0.00 0.00 51 1014.0
20260905173454 92 121 0.0 2.0 0.00 0.00 0.00 52 1014.0
20260905172954 92 187 2.0 4.0 0.00 0.00 0.00 52 1015.0
20260905172454 91 131 2.0 4.0 0.00 0.00 0.00 52 1015.0
20260905171954 91 78 2.0 3.0 0.00 0.00 0.00 56 1015.0
20260905171454 90 175 3.0 6.0 0.00 0.00 0.00 55 1015.0
20260905170955 91 273 1.0 2.0 0.00 0.00 0.00 57 1015.0
20260905170454 90 218 2.0 4.0 0.00 0.00 0.00 56 1015.0
20260905165954 91 175 3.0 5.0 0.00 0.00 0.00 56 1015.0
20260905165454 90 106 2.0 4.0 0.00 0.00 0.00 57 1015.0
20260905164954 90 185 2.0 5.0 0.00 0.00 0.00 56 1015.0
20260905164454 90 102 1.0 2.0 0.00 0.00 0.00 57 1015.0
20260905163954 90 183 3.0 5.0 0.00 0.00 0.00 59 1015.0
20260905163454 90 185 4.0 7.0 0.00 0.00 0.00 59 1015.0
20260905162954 89 191 2.0 5.0 0.00 0.00 0.00 61 1015.0
20260905162454 89 192 2.0 4.0 0.00 0.00 0.00 61 1015.0
20260905161954 89 131 2.0 3.0 0.00 0.00 0.00 61 1015.0
20260905161454 89 193 3.0 6.0 0.00 0.00 0.00 63 1015.0
20260905160954 89 184 4.0 7.0 0.00 0.00 0.00 63 1015.0
20260905160454 89 177 4.0 6.0 0.00 0.00 0.00 63 1015.0
20260905155954 89 177 4.0 7.0 0.00 0.00 0.00 62 1015.0
20260905155454 89 140 1.0 2.0 0.00 0.00 0.00 64 1015.0
20260905154956 88 181 2.0 3.0 0.00 0.00 0.00 65 1015.0
20260905154454 88 168 1.0 3.0 0.00 0.00 0.00 65 1015.0
20260905153955 87 188 2.0 4.0 0.00 0.00 0.00 69 1015.0
20260905153454 87 170 2.0 4.0 0.00 0.00 0.00 68 1015.0
20260905152955 87 194 3.0 4.0 0.00 0.00 0.00 70 1015.0
20260905152454 86 164 2.0 3.0 0.00 0.00 0.00 71 1015.0
20260905151955 86 184 4.0 6.0 0.00 0.00 0.00 71 1015.0
20260905151454 86 183 2.0 3.0 0.00 0.00 0.00 73 1015.0
20260905150954 85 266 0.0 2.0 0.00 0.00 0.00 74 1015.0
20260905150454 85 214 2.0 4.0 0.00 0.00 0.00 75 1015.0
20260905145954 85 140 1.0 4.0 0.00 0.00 0.00 75 1015.0
20260905145455 84 167 2.0 4.0 0.00 0.00 0.00 76 1015.0
20260905144954 84 184 2.0 3.0 0.00 0.00 0.00 77 1015.0
20260905144454 84 185 2.0 4.0 0.00 0.00 0.00 79 1015.0
20260905143956 83 213 2.0 4.0 0.00 0.00 0.00 79 1015.0
20260905143454 83 178 3.0 4.0 0.00 0.00 0.00 80 1015.0
20260905142954 83 220 1.0 2.0 0.00 0.00 0.00 82 1015.0